SCP
0 0 0 0 0 0 0 0 0 0 0 0 0 0 0 -0 0 0 0 0 0 0 0 0 0 0 0 0 0 0 0 0 0 0 0 0 0 0 0 0 0 0 0 0
0 0 0 0 0 0 0 0 0 0 0 0 0 0 0 0 0 0 0 0 0 0 0 0 0 0 0 0 0 0 0 0 0 0 0 0 0 0 0 0 0 0 0 0
0 0 0 0 0 0 0 0 0 0 0 0 0 0 0 0 0 0 0 0 0 0 0 0 0 0 0 0 0 0 0 0 0 0 0 0 0 0 0 0 0 0 0 0
0 0 0 0 0 0 0 0 0 0 0 0 0 0 0 0 0 0 0 0 0 0 0 0 0 0 0 0 0 0 0 0 0 0 0 0 0 0 0 0 0 0 0 0
0 0 0 0 0 0 0 0 0 0 0 0 0 0 0 0 0 0 0 0 0 0 0 0 0 0 0 0 0 0 0 0 0 0 0 0 0 0 0 0 0 0 0 0
0 0 0 0 0 0 0 0 0 0 0 0 0 0 0 0 0 0 0 0 0 0 0 0 0 0 0 0 0 0 0 0 0 0 0 0 0 0 0 0 0 0 0 0
0 0 0 0 0 0 0 0 0 0 0 0 0 0 0 0 0 0 0 0 0 0 0 0 0 0 0 0 0 0 0 0 0 0 0 0 0 0 0 0 0 0 0 0
0 0 0 0 0 0 0 0 0 0 0 0 0 0 0 0 0 0 0 0 0 0 0 0 0 0 0 0 0 0 0 0 0 0 0 0 0 0 0 0 0 0 0 0
0 0 0 0 0 0 0 0 0 0 0 0 0 0 0 0 0 0 0 0 0 0 0 0 0 0 0 0 0 0 0 0 0 0 0 0 0 0 0 0 0 0 0 0
0 0 0 0 0 0 0 0 0 0 0 0 0 0 0 0 0 0 0 0 0 0 0 0 0 0 0 0 0 0 0 0 0 0 0 0 0 0 0 0 0 0 0 0
0 0 0 0 0 0 0 0 0 0 0 0 0 0 0 0 0 0 0 0 0 0 0 0 0 0 0 0 0 0 0 0 0 0 0 0 0 0 0 0 0 0 0 0
0 0 0 0 0 0 0 0 0 0 0 0 0 0 0 0 0 0 0 0 0 0 0 0 0 0 0 0 0 0 0 0 0 0 0 0 0 0 0 0 0 0 0 0
0 0 0 0 0 0 0 0 0 0 0 0 0 0 0 0 0 0 0 0 0 0 0 0 0 0 0 0 0 0 0 0 0 0 0 0 0 0 0 0 0 0 0 0
0 0 0 0 0 0 0 0 0 0 0 0 0 0 0 0 0 0 0 0 0 0 0 0 0 0 0 0 0 0 0 0 0 0 0 0 0 0 0 0 0 0 0 0
0 0 0 0 0 0 0 0 0 0 0 0 0 0 0 0 0 0 0 0 0 0 0 0 0 0 0 0 0 0 0 0 0 0 0 0 0 0 0 0 0 0 0 0
0 0 0 0 0 0 0 0 0 0 0 0 0 0 0 0 0 0 0 0 0 0 0 0 0 0 0 0 0 0 0 0 0 0 0 0 0 0 0 0 0 0 0 0
0 0 0 0 0 0 0 0 0 0 0 0 0 0 0 0 0 0 0 0 0 0 0 0 0 0 0 0 0 0 0 0 0 0 0 0 0 0 0 0 0 0 0 0
0 0 0 0 0 0 0 0 0 0 0 0 0 0 0 0 0 0 0 0 0 0 0 0 0 0 0 0 0 0 0 0 0 0 0 0 0 0 0 0 0 0 0 0
0 0 0 0 0 0 0 0 0 0 0 0 0 0 0 0 0 0 0 0 0 0 0 0 0 0 0 0 0 0 0 0 0 0 0 0 0 0 0 0 0 0 0 0
0 0 0 0 0 0 0 0 0 0 0 0 0 0 0 0 0 0 0 0 0 0 0 0 0 0 0 0 0 0 0 0 0 0 0 0 0 0 0 0 0 0 0 0
0 0 0 0 0 0 0 0 0 0 0 0 0 0 0 0 0 0 0 0 0 0 0 0 0 0 0 0 0 0 0 0 0 0 0 0 0 0 0 0 0 0 0 0
0 0 0 0 0 0 0 0 0 0 0 0 0 0 0 0 0 0 0 0 0 0 0 0 0 0 0 0 0 0 0 0 0 0 0 0 0 0 0 0 0 0 0 0
0 0 0 0 0 0 0 0 0 0 0 0 0 0 0 0 0 0 0 0 0 0 0 0 0 0 0 0 0 0 0 0 0 0 0 0 0 0 0 0 0 0 0 0
0 0 0 0 0 0 0 0 0 0 0 0 0 0 0 0 0 0 0 0 0 0 0 0 0 0 0 0 0 0 0 0 0 0 0 0 0 0 0 0 0 0 0 0
0 0 0 0 0 0 0 0 0 0 0 0 0 0 0 0 0 0 0 0 0 0 0 0 0 0 0 0 0 0 0 0 0 0 0 0 0 0 0 0 0 0 0 0
0 0 0 0 0 0 0 0 0 0 0 0 0 0 0 0 0 0 0 0 0 0 0 0 0 0 0 0 0 0 0 0 0 0 0 0 0 0 0 0 0 0 0 0
0 0 0 0 0 0 0 0 0 0 0 0 0 0 0 0 0 0 0 0 0 0 0 0 0 0 0 0 0 0 0 0 0 0 0 0 0 0 0 0 0 0 0 0
Wind_Speed
7 6 6 9 10 11 14 15 15 15 15 14 13 11 9 9 9 10 11 11 12 12 11 11 10 9 9 8 7 7 7 6 5 4 4 4 4 4 4 4 5 5 5 5
9 7 8 12 13 14 15 16 17 18 18 16 14 10 10 10 11 12 13 13 12 13 12 12 12 11 10 9 8 8 7 6 4 4 4 4 4 4 4 4 5 5 5 5
11 7 9 13 11 11 11 12 14 16 16 13 11 10 11 11 12 13 13 13 13 13 13 12 12 11 10 9 8 8 7 6 5 4 4 4 3 3 4 4 4 4 5 4
10 10 13 7 2 5 10 12 13 14 15 14 13 11 9 9 10 12 12 12 13 12 12 11 11 11 10 9 9 8 7 6 5 4 4 3 3 3 4 4 3 3 4 4
8 11 12 9 5 4 7 9 7 10 12 11 8 7 10 10 10 11 11 11 11 11 12 12 12 11 11 10 9 8 7 6 5 4 4 3 3 3 3 3 3 3 2 3
8 10 10 6 2 1 6 6 7 8 9 8 4 6 4 2 7 8 8 8 9 10 11 12 12 11 11 10 9 8 7 5 4 4 3 3 3 2 2 2 2 2 1 2
12 12 9 4 2 3 6 5 10 11 10 7 6 8 7 3 3 6 8 9 10 11 11 11 12 12 12 10 9 7 6 5 4 4 3 2 2 1 1 2 2 2 1 0
8 10 7 3 1 2 7 9 10 11 11 10 10 10 8 5 3 5 8 9 11 11 10 10 12 12 12 10 8 7 7 6 5 4 3 2 2 1 1 1 1 1 1 0
6 5 4 2 4 7 9 11 12 13 13 12 12 10 9 6 5 6 8 9 10 11 11 10 11 11 12 10 9 9 8 7 6 5 3 2 2 2 1 0 1 0 0 1
9 8 8 8 7 7 9 12 13 14 14 13 13 12 9 7 6 7 8 9 10 11 12 11 11 11 10 11 10 10 9 8 6 5 5 4 2 1 1 1 0 1 1 1
14 13 12 9 8 11 13 14 15 15 14 13 13 13 10 8 7 7 8 9 11 12 12 13 12 11 11 11 11 11 9 8 7 5 5 4 3 3 2 4 4 3 2 2
15 13 14 15 15 16 16 16 16 16 16 14 12 13 12 10 8 8 9 10 11 12 12 13 14 13 12 12 11 11 9 8 6 5 5 4 5 5 7 5 7 7 6 4
13 14 15 16 15 15 15 16 16 15 15 15 13 12 12 10 8 8 10 12 13 14 13 14 14 14 13 12 12 11 10 8 6 6 6 5 5 5 5 5 6 6 6 6
10 12 13 13 14 15 16 16 16 15 14 13 13 11 10 10 9 10 12 12 12 13 13 14 14 14 14 13 12 11 10 8 7 6 5 5 4 4 3 4 4 4 5 6
9 10 12 13 14 14 14 14 15 15 15 14 12 11 11 11 11 11 10 10 11 13 14 15 15 15 14 14 13 12 10 8 7 6 6 5 4 4 3 3 3 2 3 4
10 10 10 11 13 14 15 15 15 16 15 15 14 13 12 12 11 10 9 11 14 16 16 16 16 15 15 15 14 11 9 10 9 7 7 6 5 5 4 4 3 2 2 1
10 10 12 13 14 15 15 15 15 15 16 15 15 14 12 11 10 9 10 12 14 14 14 15 15 16 16 15 14 10 10 11 11 8 7 6 6 5 4 4 3 2 2 2
8 10 11 13 14 15 16 16 15 15 15 15 15 13 11 10 11 10 9 10 11 12 13 14 15 16 16 15 13 10 10 10 9 8 7 6 6 5 4 4 4 3 2 3
9 10 11 12 13 14 15 15 16 15 15 14 13 12 11 10 10 9 8 10 13 13 13 14 18 17 16 15 13 10 10 10 9 8 7 7 6 5 5 4 4 3 2 2
10 11 13 13 14 14 14 15 15 15 14 14 13 12 10 9 8 7 9 10 10 8 11 15 17 15 15 15 14 10 10 10 9 8 8 7 7 6 5 4 4 3 3 2
12 13 14 14 15 14 14 15 15 15 14 13 12 11 10 8 6 6 8 8 8 9 12 17 13 12 12 13 14 10 10 10 9 8 8 7 6 6 5 5 4 4 3 3
12 12 14 14 15 15 14 13 14 14 14 12 11 10 8 6 5 6 8 5 6 10 11 11 11 13 14 15 10 10 10 9 8 7 7 7 6 6 5 5 4 3 3 3
13 13 14 14 15 15 15 13 13 13 12 12 10 9 7 5 4 4 5 5 7 13 10 9 12 18 20 13 9 10 10 9 8 8 7 6 6 5 5 5 4 3 3 3
14 14 14 14 14 14 14 14 13 11 11 10 8 7 6 4 3 4 3 6 10 13 9 11 17 21 18 9 9 9 9 9 8 7 7 6 5 5 4 4 4 3 3 4
14 14 14 14 13 11 12 13 13 12 10 8 8 6 4 3 3 3 3 6 11 12 9 14 20 20 13 8 9 9 8 8 7 7 6 6 5 5 4 4 4 3 3 3
14 12 11 12 11 10 10 9 8 8 8 7 6 5 4 2 2 2 3 6 11 11 9 9 12 13 9 9 8 8 8 8 8 7 6 6 6 5 4 4 4 4 3 3
13 11 10 10 10 9 8 8 8 8 7 6 6 5 4 3 2 3 4 5 7 8 8 8 9 9 8 7 7 7 7 6 6 6 6 5 5 4 4 4 3 3 3 4
Wind_Direction
280 284 268 266 257 232 235 254 267 275 276 278 278 272 259 239 221 210 206 202 199 197 195 192 193 196 197 198 196 197 203 215 227 232 234 245 253 255 262 268 272 278 282 279
269 265 264 264 262 253 247 255 262 269 273 276 279 272 254 238 222 215 211 207 202 199 196 195 194 194 191 193 194 196 204 212 212 227 230 241 253 260 267 269 274 276 276 277
278 280 273 266 264 256 248 242 252 264 273 284 277 260 250 242 226 221 216 207 201 198 196 196 194 190 188 191 187 193 199 202 205 215 223 238 247 256 262 265 271 277 276 278
277 276 267 289 319 273 266 268 263 265 276 282 281 279 268 250 232 223 216 207 200 196 192 192 188 185 183 181 185 191 196 198 199 211 221 231 245 259 267 275 276 277 286 289
263 270 273 282 276 244 257 278 295 280 283 295 300 280 252 232 226 224 212 203 195 191 185 184 181 179 179 181 185 190 194 198 193 201 210 222 234 249 264 276 279 280 292 303
247 261 270 289 29 257 261 264 14 345 327 320 290 262 273 230 212 215 203 190 181 179 180 178 175 176 182 184 185 187 187 189 184 188 202 218 235 255 256 254 266 276 294 308
248 257 266 319 25 206 251 349 1 347 339 326 284 289 330 321 226 201 185 176 172 173 177 177 171 175 185 185 186 178 171 169 169 173 187 201 220 234 246 251 258 260 261 300
246 252 262 73 131 284 340 346 340 339 337 323 303 305 308 289 242 194 178 173 174 174 173 171 172 179 184 182 170 158 157 161 164 166 168 169 178 212 249 252 238 236 236 92
260 283 15 6 316 333 332 323 329 330 328 320 307 300 298 282 249 213 191 178 178 176 169 169 176 183 182 168 159 158 159 160 161 157 151 157 164 169 180 218 269 300 29 41
268 270 297 306 307 319 324 319 318 317 316 311 302 298 290 277 247 221 202 186 179 176 175 175 175 180 176 159 162 163 163 162 163 162 154 143 128 124 98 46 26 29 37 38
276 286 296 292 314 324 323 319 318 319 314 307 298 290 284 270 248 224 208 193 187 187 184 177 172 171 166 163 167 169 166 164 164 157 151 140 120 71 61 56 31 9 23 27
277 295 298 300 312 320 317 315 316 315 312 307 296 287 281 269 252 228 211 199 195 192 187 179 173 170 167 168 172 172 170 167 163 159 156 152 141 119 68 72 73 61 41 23
285 298 294 296 304 312 311 312 312 309 305 303 299 288 279 269 255 233 216 206 200 194 188 180 175 172 169 170 175 177 172 165 162 164 163 166 165 161 147 128 111 88 72 55
298 300 293 301 306 310 311 311 309 306 305 303 300 293 280 269 256 236 223 213 203 193 187 181 177 174 169 169 172 174 168 160 161 163 166 168 170 170 170 170 161 136 107 83
300 299 296 302 304 309 313 313 312 311 313 310 305 294 280 267 256 245 231 213 199 192 188 183 179 173 167 168 170 169 163 162 163 159 163 164 164 165 165 166 158 144 137 123
308 307 310 312 315 318 320 319 315 313 314 311 306 298 286 273 263 250 229 206 197 195 190 185 181 171 167 168 166 164 160 155 158 161 164 165 167 169 169 168 165 160 152 120
317 323 326 323 322 320 319 316 312 310 310 308 306 301 292 278 262 245 227 212 207 201 191 186 177 167 168 169 165 162 158 158 166 169 169 169 170 173 172 173 172 165 140 74
319 316 316 315 316 315 314 314 312 310 307 307 305 300 290 274 259 246 229 211 205 199 192 183 170 165 167 169 166 162 160 162 170 170 167 170 171 171 172 173 171 173 163 150
324 320 319 317 315 314 313 314 314 311 309 308 304 297 288 278 268 251 224 204 198 193 186 173 164 166 166 166 162 163 163 163 166 167 166 161 173 175 176 179 181 185 189 199
324 324 323 321 319 318 317 317 316 313 312 310 304 297 290 283 271 245 216 209 205 193 172 165 166 168 166 165 165 166 165 167 167 167 168 172 178 177 179 183 189 196 206 220
321 322 322 321 319 318 317 317 318 317 315 311 305 299 292 284 263 233 215 210 198 179 167 163 168 166 164 161 168 167 167 168 170 171 172 176 179 182 186 189 196 208 221 234
311 312 314 315 314 314 317 318 319 317 315 312 308 303 295 281 253 229 218 213 180 166 165 167 167 162 161 159 166 165 167 169 172 173 175 179 183 188 192 196 203 212 226 243
304 305 307 310 310 311 314 316 318 318 315 312 308 302 293 278 249 228 216 193 173 173 172 169 163 161 161 163 164 167 169 172 175 176 178 181 186 191 194 200 209 218 235 250
302 302 303 306 307 307 310 315 317 315 313 310 305 300 292 278 252 232 219 176 175 174 175 163 163 165 165 167 166 169 172 174 176 179 178 182 186 192 197 205 214 225 240 254
299 298 299 302 303 302 305 310 312 314 313 312 312 310 296 273 254 225 196 181 176 174 169 168 169 168 170 168 169 171 173 174 175 175 180 184 189 196 202 208 218 230 242 254
293 292 292 292 294 295 297 299 302 305 307 309 311 312 304 284 252 212 189 180 177 172 168 166 168 170 174 170 171 172 172 169 174 182 186 188 193 197 204 211 220 233 246 257
287 286 285 285 287 288 290 293 294 296 299 301 304 304 296 276 238 199 184 174 170 169 166 166 168 173 170 168 170 172 173 173 175 179 182 187 191 196 201 210 222 235 249 259